Theta_e
322 324 325 325 326 326 335 330 334 334 341 341 340 338 337 339 340 340 340 339 339 337 337 340 341 342 343 344 346 346 348 345 343 343 344 344 342 341 337 330 316 312 313 314
323 323 325 323 322 324 331 330 332 333 333 339 337 336 333 335 338 338 339 339 341 341 341 341 346 345 346 346 347 350 349 341 342 344 345 342 338 336 329 318 313 313 313 314
322 323 323 322 323 323 326 329 330 333 328 329 333 333 333 334 335 336 338 339 339 341 343 346 347 348 349 349 350 352 349 343 344 345 343 342 342 338 323 314 312 313 314 315
323 323 322 322 323 323 325 326 325 324 327 326 332 327 328 329 333 336 337 339 339 340 342 345 349 349 350 351 352 350 348 344 342 340 342 342 342 334 323 319 321 314 314 316
323 323 322 323 323 324 324 325 324 324 326 327 330 328 327 334 333 335 337 336 338 338 342 344 347 350 350 352 350 351 345 335 332 335 340 341 335 327 322 322 316 320 315 316
323 323 323 323 324 324 324 324 324 325 326 328 327 330 328 328 329 330 332 334 336 339 340 343 346 349 350 352 350 345 338 335 331 328 339 341 338 330 323 323 321 322 323 319
323 323 323 323 324 324 325 327 326 325 325 325 326 326 328 328 328 329 329 331 333 337 340 343 346 349 350 347 347 335 334 331 330 330 329 340 339 333 320 317 323 324 324 324
324 324 323 324 324 326 327 327 325 324 325 325 328 326 326 327 327 329 330 334 336 336 336 342 345 349 349 340 343 335 336 330 329 329 330 340 338 332 320 317 324 324 324 325
325 324 324 324 325 326 327 328 327 328 328 326 326 327 328 328 330 330 331 333 334 336 336 336 343 348 349 341 341 337 339 335 331 328 330 341 339 330 325 323 323 325 325 326
326 326 324 324 324 325 327 327 328 328 328 328 327 327 328 330 329 330 331 331 331 340 339 339 342 347 347 343 343 340 336 334 330 329 335 340 339 331 324 322 318 324 325 323
326 327 326 325 325 326 326 327 328 331 330 329 329 328 329 329 330 330 330 330 330 337 339 341 342 344 344 342 343 339 339 335 333 335 334 336 336 329 324 318 320 323 320 319
326 329 328 327 326 325 326 328 328 330 329 330 330 328 329 329 329 329 329 329 330 336 339 340 342 342 343 343 342 342 340 336 335 336 334 332 331 328 325 323 323 323 320 320
327 329 329 328 328 326 326 327 327 329 332 331 330 330 330 329 329 329 329 329 330 337 340 341 341 342 342 343 342 341 340 336 334 333 332 331 330 328 325 324 322 319 320 321
326 329 331 328 327 328 329 327 327 330 331 328 328 328 329 330 331 330 330 330 331 332 337 339 339 340 341 343 343 341 339 335 332 331 329 329 328 326 324 319 318 320 321 321
330 331 329 328 327 327 328 327 328 329 329 329 327 328 329 329 329 330 330 331 332 332 332 334 337 338 339 340 342 340 338 334 331 329 328 328 327 325 320 318 319 320 321 319
329 330 328 328 327 326 326 326 327 327 328 329 328 329 329 328 329 329 329 329 329 329 328 328 328 331 337 338 339 340 338 333 330 328 327 327 326 321 318 319 319 321 320 316
330 330 329 329 327 326 328 327 326 327 328 329 329 329 329 330 330 329 328 328 328 328 329 329 329 330 332 337 338 338 336 333 330 328 326 326 321 317 319 319 321 321 316 312
329 331 330 330 328 331 328 327 326 327 327 327 328 328 328 329 328 328 328 328 328 328 329 330 330 330 332 335 336 336 335 332 330 328 327 324 317 319 320 320 321 318 315 309
327 331 330 332 329 329 327 327 327 327 327 327 328 327 327 326 327 328 327 328 329 329 331 332 332 331 333 334 334 334 333 330 329 328 326 323 320 320 320 321 320 313 310 310
324 330 330 329 332 332 328 327 326 327 329 327 327 328 328 326 329 329 330 330 331 333 334 331 327 327 329 332 332 332 331 329 328 327 325 322 319 320 321 320 317 309 309 309
327 328 331 329 330 329 328 326 326 329 329 329 329 329 329 331 330 331 329 329 332 333 332 327 328 332 332 331 332 331 330 329 328 326 324 320 320 321 322 318 312 308 309 309
326 329 330 330 331 331 325 326 327 329 329 329 329 329 329 329 329 329 330 330 331 333 331 331 331 331 330 330 330 330 329 328 327 325 322 320 321 321 316 312 307 306 306 305
325 325 328 329 328 329 328 327 329 329 328 327 328 327 329 328 328 329 330 330 330 331 332 329 327 325 326 326 326 328 327 325 325 322 320 319 318 314 310 308 306 305 305 304
322 321 325 325 325 325 324 326 327 327 327 326 326 326 327 327 327 327 329 330 329 330 329 326 325 326 326 325 326 326 324 323 322 320 320 317 314 311 309 307 304 304 303 302
320 319 323 323 322 324 326 326 323 320 318 319 319 320 321 322 324 324 326 327 328 328 328 325 324 325 324 325 324 324 323 321 320 319 317 313 313 311 306 303 301 302 302 302
312 317 320 324 320 320 320 320 319 317 317 316 317 318 319 318 317 317 318 323 325 327 327 326 325 323 323 323 322 322 322 323 323 318 315 314 311 309 303 302 301 303 303 302
Wind_Speed
9 10 13 12 3 12 13 18 14 12 6 13 17 15 16 13 11 16 18 21 23 26 25 24 23 22 21 21 21 22 21 24 22 18 18 12 9 11 9 9 9 10 10 9
8 15 12 1 4 5 10 14 15 11 4 9 16 18 16 12 17 19 20 21 24 23 24 25 24 23 22 21 21 20 19 24 22 19 16 14 12 11 8 11 13 13 10 9
16 4 4 11 10 9 10 12 10 11 6 10 7 15 17 18 22 21 23 23 23 25 25 25 25 23 21 20 18 17 19 18 19 17 17 14 13 12 12 13 14 13 11 10
11 11 8 12 16 12 14 11 8 9 7 12 16 12 13 12 14 18 26 24 27 27 27 25 24 23 20 17 16 18 20 17 12 14 16 14 15 13 15 14 12 14 12 9
8 11 16 12 12 14 16 12 15 14 13 13 11 9 16 6 11 16 24 28 29 30 28 27 25 22 19 18 23 28 16 11 4 17 17 17 14 12 15 15 17 13 12 9
15 2 10 13 6 10 1 8 13 13 14 15 20 15 15 13 12 12 18 23 27 26 25 26 24 23 22 26 30 23 20 18 16 16 21 18 16 16 18 18 17 13 10 8
14 15 14 11 12 7 11 13 9 12 14 16 19 12 15 18 9 11 14 13 17 21 23 24 26 27 27 31 36 34 30 7 15 37 28 23 22 20 21 20 16 15 11 9
11 13 18 13 17 13 19 18 14 15 15 17 7 10 14 10 12 10 9 7 7 9 14 21 27 30 34 31 36 40 33 7 10 29 34 29 26 24 21 20 17 14 11 11
6 9 1 5 11 11 9 10 11 13 4 9 9 7 8 10 9 10 10 8 8 9 9 14 21 29 32 29 35 40 28 23 26 29 29 30 30 26 21 21 20 15 14 12
9 12 8 5 8 5 8 3 7 9 16 17 11 9 7 8 11 11 10 10 10 7 6 9 15 24 29 29 33 36 25 28 26 26 29 30 31 30 25 25 22 18 15 13
11 10 11 8 11 13 7 10 8 6 7 12 12 10 8 7 10 9 11 9 9 7 7 9 13 20 25 27 33 33 31 24 21 24 26 28 31 31 28 27 25 19 17 14
9 7 11 17 9 6 12 14 11 9 13 11 10 13 2 6 10 12 12 11 10 11 10 10 13 17 22 27 32 35 29 22 23 26 27 27 27 27 27 26 22 18 15 14
7 7 9 11 9 7 10 13 15 14 10 16 14 12 9 10 11 14 15 14 14 12 13 13 14 17 21 26 31 32 31 28 26 27 28 29 28 28 26 24 22 20 17 14
5 11 13 13 13 3 12 13 15 15 13 16 17 17 14 13 13 17 17 18 15 16 17 17 16 18 20 25 30 31 31 29 29 29 29 29 31 29 28 28 25 19 16 15
5 16 17 19 20 13 17 17 16 16 18 19 18 19 12 14 13 12 16 14 12 15 16 16 18 19 21 23 28 29 30 30 32 31 31 31 30 29 31 29 26 19 19 17
8 14 16 20 19 19 21 21 20 21 19 21 20 20 18 19 10 11 12 11 14 17 17 19 20 20 21 23 26 29 31 32 33 31 32 31 32 35 33 30 21 22 22 15
13 12 15 21 20 21 26 23 22 22 22 19 21 20 16 10 12 17 17 17 18 18 16 16 15 15 17 21 25 30 32 32 32 32 33 33 35 34 34 31 26 25 21 14
17 14 13 17 17 28 18 18 18 18 21 22 23 20 21 18 21 17 12 15 13 12 12 13 12 11 10 14 20 24 27 32 33 33 33 32 36 37 37 31 29 25 18 13
19 16 16 16 18 23 18 9 12 16 21 18 17 15 17 18 13 17 19 13 11 13 11 10 10 8 8 11 17 22 26 32 32 33 33 33 38 40 36 31 29 26 18 14
23 18 15 17 18 27 20 21 21 16 21 17 21 14 15 17 11 11 4 0 3 5 4 4 4 5 6 10 16 21 25 30 33 33 32 33 38 36 34 33 30 23 17 15
14 17 21 18 20 22 16 12 4 17 15 2 4 6 8 9 5 6 5 4 4 3 3 4 3 3 5 10 15 20 24 29 32 32 33 33 36 37 34 34 27 22 19 17
20 10 17 18 22 26 7 6 17 7 2 3 2 2 1 3 5 5 5 5 5 4 4 3 3 4 6 9 14 19 23 26 31 35 32 37 36 35 35 27 23 19 21 19
20 20 15 11 14 1 1 9 4 1 2 2 4 5 6 7 7 7 6 5 4 5 5 6 7 8 7 10 15 21 26 31 31 35 36 34 35 35 29 23 21 20 18 17
20 25 15 17 20 18 13 6 2 2 3 2 2 3 4 5 6 7 7 5 4 5 6 8 8 7 8 12 18 21 28 33 37 35 32 36 37 29 21 17 19 18 17 16
9 12 13 19 21 7 7 7 5 3 5 6 5 6 6 5 5 6 7 7 5 6 7 7 8 8 11 18 20 23 30 31 29 31 35 36 28 22 23 22 19 18 17 17
9 11 5 5 14 12 14 10 10 12 12 11 12 13 11 12 14 14 14 10 8 6 7 8 10 10 15 21 24 23 24 25 27 33 35 28 26 25 25 22 22 20 21 20
Wind_Direction
202 238 219 220 264 319 303 224 201 205 138 210 225 226 233 201 229 229 212 208 208 213 214 217 219 220 221 219 216 212 203 212 221 222 230 239 211 197 195 192 187 170 157 138
213 228 236 344 246 258 238 220 207 131 158 228 226 235 244 227 239 239 227 215 215 215 215 215 219 217 218 216 211 201 195 219 219 227 231 240 201 207 186 185 182 170 157 140
242 230 248 224 217 237 224 231 195 230 162 229 263 254 252 242 243 236 238 232 222 220 217 217 218 215 212 208 199 188 199 209 219 224 240 237 228 214 186 184 176 170 161 152
246 224 214 220 228 228 238 215 232 204 219 234 198 257 234 224 221 227 231 229 231 226 226 221 219 214 208 199 184 182 194 208 251 270 265 243 235 196 180 173 176 172 164 154
231 208 212 213 219 211 241 227 226 223 227 253 207 247 270 178 230 231 225 226 230 231 227 225 220 215 203 184 185 187 187 129 20 300 261 233 199 189 182 173 179 175 172 162
262 161 223 217 225 229 201 217 232 228 238 232 247 227 254 238 215 245 222 227 233 234 233 228 222 214 199 185 188 178 165 163 169 274 257 241 218 204 184 180 174 175 179 175
218 224 224 237 226 196 214 199 207 217 225 244 247 241 252 277 283 268 282 284 235 236 231 227 218 210 200 195 193 170 171 154 241 247 251 232 220 215 205 194 176 184 185 187
226 219 211 204 231 219 202 214 236 235 238 244 153 237 251 249 280 248 254 264 271 260 253 227 222 210 203 199 196 189 188 224 252 242 238 220 217 211 202 199 189 185 191 191
224 240 115 247 228 239 187 226 259 278 260 280 261 193 271 227 238 236 246 263 279 290 274 236 219 209 205 204 200 198 213 212 233 227 210 210 213 207 195 194 196 191 191 197
244 266 235 153 200 191 265 127 209 216 253 250 250 236 262 181 219 221 221 238 257 265 255 216 206 202 206 209 204 196 208 220 229 222 207 205 210 208 198 201 198 196 193 189
235 235 230 201 212 230 182 226 237 296 287 269 265 261 217 228 228 214 221 234 254 235 223 201 193 200 203 204 206 203 212 226 217 198 197 201 204 203 203 205 198 197 203 204
208 237 242 236 247 258 268 258 240 248 234 238 277 278 125 224 222 211 226 232 231 227 220 207 197 198 201 202 206 210 209 207 201 195 195 194 194 195 198 196 193 190 193 201
181 214 238 228 206 214 232 226 240 248 270 263 271 263 187 198 234 225 235 241 237 220 214 215 211 209 208 206 207 211 214 209 203 195 193 192 189 192 191 186 191 197 202 208
244 244 241 254 260 320 207 226 226 232 253 261 250 253 252 210 227 237 235 242 248 233 223 223 225 223 219 213 212 212 211 204 199 194 193 190 189 186 185 195 199 200 219 218
240 241 240 252 261 265 263 260 242 231 248 256 269 273 272 260 274 239 247 248 241 239 235 235 240 239 231 221 215 214 211 202 197 191 190 188 182 184 194 195 195 224 208 216
231 255 254 255 251 251 252 250 254 260 250 260 263 261 272 269 257 240 233 233 244 254 260 262 264 258 240 229 221 215 208 203 197 191 188 184 180 192 196 195 218 211 207 207
268 261 245 250 250 260 257 252 253 256 252 252 258 258 261 224 240 256 259 258 261 264 267 269 270 267 252 233 220 212 206 201 197 191 187 185 188 194 197 203 204 202 196 188
256 258 255 255 258 250 255 259 259 252 253 252 255 258 273 264 268 273 262 255 251 256 272 272 275 272 255 229 216 208 203 198 196 190 189 185 189 195 200 200 199 193 196 190
230 243 256 251 243 252 247 225 233 240 252 246 257 264 252 258 262 265 258 257 261 276 270 269 272 265 236 207 197 195 196 195 194 193 189 186 190 197 199 200 194 188 181 172
228 220 242 242 243 248 256 251 232 243 260 258 263 252 264 273 257 261 71 175 272 278 269 255 258 248 211 188 185 186 193 194 195 194 190 188 197 198 199 196 189 178 167 160
214 226 225 233 248 255 254 269 278 237 252 300 285 274 269 252 291 344 348 333 302 271 304 289 256 202 196 183 183 187 191 194 194 192 187 190 196 197 198 189 174 175 157 159
247 220 223 234 242 249 224 206 230 301 64 195 151 102 218 245 274 283 293 291 283 290 287 262 227 209 211 191 185 189 191 188 188 193 181 189 197 195 183 169 169 166 167 162
243 254 256 248 231 344 140 242 36 358 279 293 310 302 288 284 286 290 291 297 286 263 244 237 241 249 239 208 192 188 187 186 184 176 183 192 186 174 163 163 169 166 157 157
260 258 259 271 250 255 247 237 217 154 96 57 19 327 307 308 312 312 310 305 279 246 235 247 245 230 220 192 188 192 182 177 178 189 192 182 168 156 158 160 167 155 159 164
287 330 257 250 250 259 228 193 132 328 314 310 303 299 288 310 312 316 320 318 283 240 228 224 221 219 200 178 179 184 184 194 196 189 178 160 157 159 158 164 167 164 165 165
239 273 295 277 336 319 288 298 288 300 299 308 308 300 282 295 297 295 288 287 271 241 224 215 213 214 195 183 191 183 191 196 191 175 163 163 164 162 168 171 171 174 178 170